Location: Saddleback Butte
(34.6776°N, 117.8050°W)
Time: 20:42:21
(UTC-08:00)

Iridium 35 - Visible Passes

Search period start: 18 January 2017 00:00
Search period end: 28 January 2017 00:00
Orbit: 776 x 779 km, 86.4° (Epoch: 18 January)

Date Brightness Start Highest point End Pass type
(mag) Time Alt. Az. Time Alt. Az. Time Alt. Az.
18 Jan 7.3 04:09:40 10° NNE 04:13:41 22° E 04:17:41 10° SE visible
18 Jan 5.6 05:49:45 10° NNW 05:54:25 34° W 05:59:04 10° SSW visible
18 Jan 7.9 18:45:01 10° WSW 18:47:55 15° WNW 18:50:49 10° NW visible
19 Jan 8.0 03:38:18 10° ENE 03:39:52 11° ENE 03:41:26 10° E visible
19 Jan 4.9 05:15:51 10° N 05:21:02 67° W 05:26:11 10° S visible
19 Jan 7.1 18:09:42 10° SW 18:14:08 28° W 18:18:37 10° NNW visible
20 Jan 5.4 04:42:21 10° N 04:47:32 63° E 04:52:41 10° SSE visible
20 Jan 6.7 06:25:47 10° WNW 06:27:36 12° WNW 06:29:23 10° W visible
20 Jan 5.9 17:35:25 10° SSW 17:40:30 55° W 17:45:37 10° N visible
21 Jan 6.6 04:09:14 10° NNE 04:13:55 32° E 04:18:34 10° SE visible
21 Jan 6.1 05:50:21 10° NNW 05:54:23 23° W 05:58:25 10° SW visible
22 Jan 7.5 03:37:50 13° NE 03:40:11 17° ENE 03:43:32 10° ESE visible
22 Jan 5.3 05:18:27 25° NNW 05:21:04 44° W 05:25:59 10° SSW visible
22 Jan 7.8 18:10:42 10° SW 18:14:24 19° W 18:18:05 10° NNW visible
23 Jan 4.9 04:46:51 65° N 04:47:39 86° W 04:52:51 10° S visible
23 Jan 6.8 17:35:54 10° SSW 17:40:40 36° W 17:45:28 10° NNW visible
24 Jan 6.0 04:15:03 43° ESE 04:15:03 43° ESE 04:19:07 10° SSE visible
24 Jan 6.6 05:55:38 14° W 05:55:38 14° W 05:57:19 10° WSW visible
25 Jan 7.4 03:43:06 17° ESE 03:43:06 17° ESE 03:44:42 10° SE visible
25 Jan 6.5 05:23:40 20° SW 05:23:40 20° SW 05:25:33 10° SW visible
25 Jan 8.0 18:12:23 10° WSW 18:14:41 13° WNW 18:17:00 10° NW visible
26 Jan 6.9 04:51:36 17° SSW 04:51:36 17° SSW 04:52:49 10° SSW visible
26 Jan 7.5 17:36:39 10° SW 17:40:53 25° W 17:45:08 10° NNW visible
27 Jan 7.6 04:19:26 10° S 04:19:26 10° S 04:19:27 10° S visible
